Погода в Краснодаре

Погода в Краснодаре : погода сейчас, прогноз погоды и архив. Всё, что Вы хотите узнать о погоде в Краснодаре!

Хотите узнать прогноз погоды в Краснодаре? Тогда Вам сюда: Погода в Краснодаре

Поиск расширенной информации на нашем сайте:

Другие новости

Новости СМИ2

Главная страница сайта

Новости сайта

02.10.2013

Напоминаем, что на нашем новом сайте вы можете получить высокодетализированные прогнозы погоды по пунктам России, СНГ и мира (включающие важные для авиации метеовеличины, такие как направление и скорость ветра, видимость, явления погоды, количество и форма облачности, нижняя и верхняя граница облачности), а также ознакомиться с разнообразными материалами по авиационной метеорологии и подборкой полезных ссылок на эту тему.

Сайт Метеоцентр.Азия посвящён разработке технологий оптимизации авиаметеорологического обслуживания, включая проектирование и перспективное создание нескольких автоматизированных авиаметеорологических систем:
- система выпуска высокодетальных прогностических карт явлений погоды для нижнего воздушного пространства по России и ближнему зарубежью;
- система верификации прогнозов TAF (выпускаемых синоптиками официальных АМСГ РФ и ближнего зарубежья) и AUTOTAF (выпускаемых сайтом Метеоцентр.Азия) - выявление ошибок, онлайн-сопоставление с фактической погодой METAR, автоматическое внесение коррективов в прогнозы при резком отклонении фактической погоды от прогноза, подсчёт оправдываемости прогнозов по элементам и в целом;
- система обработки, анализа и отображения авиаметеорологической информации для применения провайдерами метеорологической информации.

Рекомендуем: маршрутка минск вильнюс аэропорт

Погода в Краснодаре - сегодня

Время (UTC), дата Ветер
(°,м/с) 
Видим.   Явления Облачность Т
(°С)
Тd
(°С)
f(%) Тe
(°С)
Pmin
(гПа)
dP
(гПа)
Po
(мм)
O2
(г/м3)
Тmin Tmax R s Состояние
почвы
03 20.04.17 050 (СВ) 10 км    6/0 верхняя 
[Ci fib]
+4.6 +2.1 84 +5  1021.7  -0.6  764  302  +4.5         
06 20.04.17 100 (В) 10 км    10/10 1000 м кучево-дожд. 
[Cb cap]
+6.7 +3.4 79 +7  1021.5  -0.2  763  300  +4.5         
09 20.04.17 120 (ЮВ) 10 км    9/0 средняя, верхняя 
[Ac trans|Ci fib]
+11.1 +2.9 57 +11  1019.6  -1.8  762  295           
12 20.04.17 120 (ЮВ) 10 км    1/0 средняя 
[Ac trans]
+15.2 +2.7 43 +15  1016.9  -2.6  760  290           
15 20.04.17 100 (В) 10 км    3/0 
+16.4 +3.8 43 +16  1014.6  -2.3  758  288    +17.1       
18 20.04.17 090 (В) 10 км    ясно 
+12.5 +5.6 63 +12  1013.9  -0.8  758  291           
21 20.04.17 130 (ЮВ) 10 км    ясно 
+9.7 +5.3 74 +9  1011.6  -2.3  756  293           
00 21.04.17 060 (СВ) 10 км    10/8 1000 м средняя 
[Sc|Ac und]
+9.9 +5.3 73 +9  1008.9  -2.7  754  292           
03 21.04.17 260 (З) 10 км  {ливн. осадки}  10/10 1000 м кучево-дожд. 
[Cb cap]
+9.2 +6.7 84 +10  1010.5  1.6  755  293  +8.9    0.5     
06 21.04.17 190 (Ю) 4000 м  слаб. ливневой дождь  10/10 600 м кучево-дожд. 
[Cb cap]
+9.1 +7.7 91 +10  1011.9  1.4  756  294  +8.7         
09 21.04.17 270 (З) 10 км  {ливн. осадки}  10/10 600 м кучево-дожд. 
[Cb cap]
+11.2 +8.1 81 +11  1013.7  1.8  758  292           
12 21.04.17 230 (ЮЗ) 2{12}  4000 м  слаб. ливневой дождь  10/10 600 м кучево-дожд. 
[Cb cap]
+7.8 +5.8 87 +8  1014.8  1.1  758  296           
15 21.04.17 240 (ЮЗ) 4000 м  слаб. ливневой дождь  10/10 300 м кучево-дожд. 
[Cb cap]
+7.7 +5.3 85 +8  1015.1  0.3  759  296    +11.4     
18 21.04.17 190 (Ю) 10 км  {ливн. осадки}  10/8 600 м кучево-дожд., средняя 
[Cb cap|Ac und]
+7.1 +5.3 88 +7  1015  -0.1  759  297           
21 21.04.17 240 (ЮЗ) 10 км    1/1 1000 м 
[Sc]
+7.1 +2.3 71 +6  1014.2  -0.8  758  297           
00 22.04.17 260 (З) 10 км  слаб. ливневой дождь  10/10 1000 м кучево-дожд. 
[Cb cap]
+6.6 +1.7 71 +5  1013.1  -1.1  757  298           
03 22.04.17 270 (З) 5{11}  10 км  в посл. час ливневой дождь  10/10 600 м кучево-дожд. 
[Cb cap]
+6.4 +2 73 +5  1013.5  0.4  757  298  +5.8    0.6     
06 22.04.17 280 (З) 3{10}  4000 м  слаб. ливневой дождь  10/10 300 м кучево-дожд. 
[Cb cap]
+6.8 +3.8 81 +6  1016.1  2.6  759  298           
09 22.04.17 270 (З) 3-11{14}  10 км  {ливн. осадки}  9/8 600 м кучево-дожд., средняя 
[Cb cap|Ac trans]
+8.1 +2.1 66 +7  1020.3  4.1  762  298           
12 22.04.17 270 (З) 5-14{14}  10 км  {ливн. осадки}  9/9 600 м 
[Sc]
+12.7 +0.2 42 +12  1020.4  0.2  763  294           
15 22.04.17 250 (З) 3-11{14}  10 км    10/5 600 м средняя, верхняя 
[Sc|Ac trans|Ci fib]
+10.5 +0.9 51 +10  1019.4  -1  762  295    +13.4  0.8     
18 22.04.17 270 (З) 4{10}  10 км    3/1 600 м верхняя 
[Sc|Ci fib]
+8.7 +1.9 62 +8  1019.2  -0.3  762  297           
21 22.04.17 320 (СЗ) 10 км    10/10 300 м 
[St]
+8.1 +3.2 71 +9  1017.1  -2  760  297           
00 23.04.17 060 (СВ) 10 км    10/10 300 м 
[St]
+7.9 +3.4 73 +9  1015.2  -1.9  759  297           
03 23.04.17 070 (В) 4000 м  слаб. ливневой дождь  10/10 200 м кучево-дожд. 
[Cb cap]
+6.8 +5.7 93 +7  1012.9  -2.3  757  297  +6.8       
Время (UTC), дата Ветер
(°,м/с) 
Видим.   Явления Облачность Т
(°С)
Тd
(°С)
f(%) Тe
(°С)
Pmin
(гПа)
dP
(гПа)
Po
(мм)
O2
(г/м3)
Тmin Tmax R s Состояние
почвы

Для получения пояснительной информации подведите курсор к названию столбца.

ПОГОДА в Краснодаре - архив

Всё, что Вы хотите узнать о погоде в Краснодаре - удобно и подробно!

Выберите нужную дату (начиная с 1 января 2015* года) и нажмите кнопку "Найти".
Будут отображены архивные сводки погоды по пункту Краснодар, начиная с указанной даты.


Отображать данные в формате CSV (для использования в таблицах Excel)


Внимание! Наш архив погоды предназначен исключительно для личного некоммерческого использования в познавательных целях. Если Вам необходимы официальные справки о состоянии погоды (для производственных, юридических, коммерческих и т.п. целей), обращайтесь в органы Росгидромета.

*Примечание: данная дата относится к архиву по метеостанциям СССР (Россия, СНГ, Балтия).
Архив по метеостанциям Зарубежной Европы и Азии (кроме Китая) хранится 10 дней, по другим регионам земного шара (Китай, Африка, Америка, Австралия, Океания) - 1 день.

Краснодар - район местоположения метеостанции


Название, широта, долгота, высота метеостанции:
Краснодар (Круглик) 45.03°ш. 39.15°д. 34 м над ур. моря [Российская Федерация]

Дополнительная информация

В oтличие oт бoльшинства пoгoдных сайтoв мы публикуем пoдрoбную метеoинфoрмацию в детальнoм прoфессиoнальнoм фoрмате.

Характеристики температуры и влажнoсти вoздуха измеряются на высoте 2 м в тени вдали oт зданий и деревьев.
Скoрoсть ветра измеряется на высoте 10 м (на урoвне рoста челoвека скoрoсть ветра ниже в 1.5-2 раза). Если метеoстанция нахoдится в гoрoде или в лесу, тo скoрoсть ветра занижена на 2-4 м/с пo сравнению с oткрытым местoм. Скoрoсть ветра над акватoриями крупных рек и oзёр, а также на вершинах хoлмoв на 2-5 м/с выше, чем в oбычных услoвиях.
Атмoсфернoе давление в разных тoчках местнoсти мoжет значительнo oтличаться oт давления на метеoстанции, в зависимoсти oт услoвий рельефа (при пoдъёме на 10 м давление пoнижается примернo на 1 мм рт.ст.).